This demonstration page uses our WeatherBlox Daily Observations layout. Learn more.

Left ArrowRight Arrow

39.92423, -83.80882

Hourly Observations for February 17, 2022

Temp ( °F °C ) Dew Point ( °F °C ) Humidity (%) Winds ( mph kmh ) Pressure ( in mb ) Visibility ( mi km ) Precip ( " mm )
12:56 am 00:56 Cloudy 56 13.3 44 6.7 65 65 SSW 16 26 30.00 1016 10 16 0.00 0.00
1:56 am 01:56 Clear 55 12.8 45 7.2 69 69 S 17 28 29.98 1015 10 16 0.00 0.00
2:56 am 02:56 Clear 55 12.8 45 7.2 69 69 S 15 24 29.95 1014 10 16 0.00 0.00
3:56 am 03:56 Clear 54 12.2 45 7.2 72 72 S 12 19 29.92 1013 10 16 0.00 0.00
4:56 am 04:56 Mostly Cloudy 55 12.8 46 7.8 72 72 S 12 19 29.90 1013 10 16 0.00 0.00
5:56 am 05:56 Cloudy with Light Rain 52 11.1 52 11.1 100 100 S 7 11 29.90 1012 10 16 0.00 0.00
6:56 am 06:56 Cloudy with Rain 48 8.9 48 8.9 100 100 Calm 29.92 1013 6 10 0.00 0.00
7:53 am 07:53 Cloudy with Heavy Rain 46 8 N/A N/A E 3 6 29.92 1013 2 3 0.00 0.00
7:56 am 07:56 Cloudy with Rain 46 8 N/A N/A E 3 6 29.91 1013 2 3 0.00 0.00
8:11 am 08:11 Cloudy with Rain 46 8 N/A N/A Calm 29.93 1014 3 4 0.00 0.00
8:29 am 08:29 Cloudy with Light Rain 48 9 N/A N/A W 6 9 29.94 1014 2 3 0.00 0.00
8:42 am 08:42 Cloudy with Light Rain 46 8 N/A N/A SW 5 7 29.94 1014 2 2 0.00 0.00
8:47 am 08:47 Cloudy with Light Rain 48 9 N/A N/A SSW 5 7 29.94 1014 1 1 0.00 0.00
8:56 am 08:56 Cloudy with Light Rain 48 9 N/A N/A SW 3 6 29.93 1014 1 1 0.00 0.00
9:01 am 09:01 Cloudy with Light Rain 48 9 N/A N/A SSW 3 6 29.94 1014 1 1 0.00 0.00
9:11 am 09:11 Cloudy with Light Rain 48 9 N/A N/A S 3 6 29.93 1013 0 0 0.00 0.00
9:16 am 09:16 Cloudy with Light Rain 48 9 N/A N/A S 5 7 29.93 1013 1 1 0.00 0.00
9:22 am 09:22 Cloudy with Light Rain 48 9 N/A N/A S 5 7 29.92 1013 1 2 0.00 0.00
9:27 am 09:27 Cloudy with Light Rain 50 10 N/A N/A S 6 9 29.90 1013 2 3 0.00 0.00
9:36 am 09:36 Cloudy with Light Rain 50 10 N/A N/A S 6 9 29.90 1013 4 6 0.00 0.00
9:56 am 09:56 Cloudy with Light Rain 50 10 N/A N/A S 7 11 29.88 1012 6 10 0.00 0.00
10:56 am 10:56 Cloudy with Light Rain 52 11 N/A N/A S 13 20 29.81 1010 10 16 0.00 0.00
11:56 am 11:56 Cloudy with Light Rain 54 12.2 54 12.2 100 100 SSW 17 28 29.78 1009 10 16 0.00 0.00
12:48 pm 12:48 Cloudy with Light Rain 52 11 N/A N/A S 15 24 29.76 1008 10 16 0.00 0.00
12:56 pm 12:56 Cloudy with Light Rain 52 11 N/A N/A S 14 22 29.75 1007 8 13 0.00 0.00
1:20 pm 13:20 Cloudy with Light Rain 52 11 N/A N/A S 10 17 29.74 1007 7 11 0.00 0.00
1:56 pm 13:56 Cloudy with Rain 52 11 N/A N/A S 8 13 29.69 1005 7 11 0.00 0.00
2:38 pm 14:38 Cloudy with Rain 52 11 N/A N/A S 10 17 29.65 1004 7 11 0.00 0.00
2:56 pm 14:56 Cloudy with Rain 52 11 N/A N/A S 7 11 29.63 1003 5 8 0.00 0.00
3:56 pm 15:56 Cloudy with Heavy Rain 52 11 N/A N/A S 6 9 29.60 1003 3 5 0.00 0.00
4:56 pm 16:56 Cloudy with Rain 50 10 N/A N/A SSE 6 9 29.53 1000 7 11 0.00 0.00
5:11 pm 17:11 Cloudy with Rain 50 10 N/A N/A SE 5 7 29.53 1000 5 8 0.00 0.00
5:56 pm 17:56 Cloudy with Heavy Rain 50 10 N/A N/A N 7 11 29.51 999 4 6 0.00 0.00
6:02 pm 18:02 Cloudy with Light Rain 50 10 N/A N/A NNW 7 11 29.52 1000 2 2 0.00 0.00
6:06 pm 18:06 Cloudy with Light Rain 48 9 N/A N/A NNW 7 11 29.52 999 1 1 0.00 0.00
6:11 pm 18:11 Cloudy with Light Rain 48 9 N/A N/A NNW 8 13 29.52 999 0 0 0.00 0.00
6:18 pm 18:18 Cloudy with Light Rain 48 9 N/A N/A WNW 12 19 29.52 999 0 0 0.00 0.00
6:27 pm 18:27 Cloudy with Mist and Fog 45 7 N/A N/A NNW 22 35 29.53 1000 1 1 0.00 0.00
6:29 pm 18:29 Cloudy with Mist and Fog 43 6 N/A N/A NNW 20 31 29.54 1000 1 2 0.00 0.00
6:32 pm 18:32 Cloudy with Mist and Fog 41 5 N/A N/A NNW 17 28 29.55 1001 3 5 0.00 0.00
6:44 pm 18:44 Cloudy 37 3 N/A N/A N 24 39 29.55 1001 10 16 0.00 0.00
6:56 pm 18:56 Cloudy with Light Wintry Mix 34 1 N/A N/A N 20 31 29.53 1000 9 14 0.00 0.00
7:46 pm 19:46 Cloudy with Light Rain 34 1 N/A N/A NE 18 30 29.56 1001 10 16 0.00 0.00
7:56 pm 19:56 Cloudy with Light Rain 34 1 N/A N/A NNE 15 24 29.52 1000 8 13 0.00 0.00
8:56 pm 20:56 Cloudy with Light Snow 31 -0.6 31 -0.6 100 100 N 13 20 29.55 1001 3 5 0.00 0.00
9:33 pm 21:33 Cloudy with Light Snow 32 0 N/A N/A NNW 18 30 29.65 1004 2 3 0.00 0.00
9:52 pm 21:52 Windy with Snow Likely 30 -1 30 -1 100 100 NNW 24 39 29.68 1005 3 5 0.00 0.00
9:56 pm 21:56 Windy with Snow Likely 31 -0.6 31 -0.6 100 100 NNW 24 39 29.65 1004 3 4 0.00 0.00
10:08 pm 22:08 Windy with Snow Likely 30 -1 30 -1 100 100 NNW 21 33 29.72 1006 3 5 0.00 0.00
10:12 pm 22:12 Windy with Snow Likely 30 -1 30 -1 100 100 NNW 21 33 29.72 1006 3 4 0.00 0.00
10:18 pm 22:18 Windy with Snow Likely 30 -1 30 -1 100 100 NNW 25 41 29.72 1006 3 5 0.00 0.00
10:56 pm 22:56 Windy with Snow Likely 29 -1.7 29 -1.7 100 100 NNW 22 35 29.73 1007 8 13 0.00 0.00
11:37 pm 23:37 Windy with Snow Likely 27 -3 27 -3 100 100 NNW 24 39 29.81 1009 7 11 0.00 0.00
11:44 pm 23:44 Windy with Snow Likely 27 -3 27 -3 100 100 NNW 20 31 29.82 1010 8 13 0.00 0.00
11:56 pm 23:56 Cloudy with Light Snow 27 -2.8 27 -2.8 100 100 NNW 16 26 29.78 1009 7 11 0.00 0.00

Powered by AerisWeather